Year,Month,Day,Hour,Minute,Value (Times are PST for windgust in km/hr)
2013,10,27,00,00,1.60
2013,10,27,00,01,1.60
2013,10,27,00,07,3.20
2013,10,27,00,08,4.80
2013,10,27,00,09,4.80
2013,10,27,00,10,3.20
2013,10,27,00,11,3.20
2013,10,27,00,12,3.20
2013,10,27,00,13,1.60
2013,10,27,00,14,3.20
2013,10,27,00,15,1.60
2013,10,27,00,16,1.60
2013,10,27,00,17,1.60
2013,10,27,00,25,1.60
2013,10,27,00,31,3.20
2013,10,27,00,32,1.60
2013,10,27,00,33,3.20
2013,10,27,00,34,3.20
2013,10,27,00,35,1.60
2013,10,27,00,36,1.60
2013,10,27,00,39,1.60
2013,10,27,00,40,1.60
2013,10,27,00,41,1.60
2013,10,27,00,42,1.60
2013,10,27,00,44,3.20
2013,10,27,00,45,4.80
2013,10,27,00,46,3.20
2013,10,27,00,50,1.60
2013,10,27,00,51,1.60
2013,10,27,00,52,1.60
2013,10,27,00,53,1.60
2013,10,27,00,54,1.60
2013,10,27,00,55,1.60
2013,10,27,00,56,3.20
2013,10,27,00,57,3.20
2013,10,27,00,58,3.20
2013,10,27,00,59,1.60
2013,10,27,01,00,3.20
2013,10,27,01,01,3.20
2013,10,27,01,02,1.60
2013,10,27,01,03,4.80
2013,10,27,01,04,4.80
2013,10,27,01,05,4.80
2013,10,27,01,06,1.60
2013,10,27,01,07,1.60
2013,10,27,01,08,1.60
2013,10,27,01,09,4.80
2013,10,27,01,10,4.80
2013,10,27,01,11,1.60
2013,10,27,01,13,1.60
2013,10,27,01,14,4.80
2013,10,27,01,15,3.20
2013,10,27,01,16,3.20
2013,10,27,01,17,4.80
2013,10,27,01,18,4.80
2013,10,27,01,20,1.60
2013,10,27,01,22,1.60
2013,10,27,01,23,3.20
2013,10,27,01,24,6.40
2013,10,27,01,25,6.40
2013,10,27,01,26,6.40
2013,10,27,01,27,8.10
2013,10,27,01,28,4.80
2013,10,27,01,29,11.30
2013,10,27,01,30,9.60
2013,10,27,01,31,8.10
2013,10,27,01,32,8.10
2013,10,27,01,33,9.60
2013,10,27,01,34,8.10
2013,10,27,01,35,4.80
2013,10,27,01,36,6.40
2013,10,27,01,37,6.40
2013,10,27,01,38,6.40
2013,10,27,01,39,9.60
2013,10,27,01,40,17.70
2013,10,27,01,41,11.30
2013,10,27,01,42,6.40
2013,10,27,01,43,6.40
2013,10,27,01,44,8.10
2013,10,27,01,45,6.40
2013,10,27,01,46,6.40
2013,10,27,01,47,6.40
2013,10,27,01,48,6.40
2013,10,27,01,49,6.40
2013,10,27,01,50,6.40
2013,10,27,01,51,3.20
2013,10,27,01,52,4.80
2013,10,27,01,53,4.80
2013,10,27,01,54,3.20
2013,10,27,01,55,6.40
2013,10,27,01,56,3.20
2013,10,27,01,57,3.20
2013,10,27,01,58,3.20
2013,10,27,01,59,1.60
2013,10,27,02,00,3.20
2013,10,27,02,01,4.80
2013,10,27,02,02,8.10
2013,10,27,02,03,8.10
2013,10,27,02,04,6.40
2013,10,27,02,05,8.10
2013,10,27,02,06,6.40
2013,10,27,02,07,6.40
2013,10,27,02,08,6.40
2013,10,27,02,09,4.80
2013,10,27,02,10,6.40
2013,10,27,02,11,4.80
2013,10,27,02,12,4.80
2013,10,27,02,13,3.20
2013,10,27,02,14,6.40
2013,10,27,02,15,4.80
2013,10,27,02,16,1.60
2013,10,27,02,17,3.20
2013,10,27,02,18,1.60
2013,10,27,02,19,4.80
2013,10,27,02,20,3.20
2013,10,27,02,21,4.80
2013,10,27,02,22,4.80
2013,10,27,02,23,3.20
2013,10,27,02,24,1.60
2013,10,27,02,25,3.20
2013,10,27,02,26,3.20
2013,10,27,02,27,3.20
2013,10,27,02,28,3.20
2013,10,27,02,29,3.20
2013,10,27,02,30,4.80
2013,10,27,02,31,6.40
2013,10,27,02,32,3.20
2013,10,27,02,33,4.80
2013,10,27,02,34,4.80
2013,10,27,02,35,1.60
2013,10,27,02,36,1.60
2013,10,27,02,37,1.60
2013,10,27,02,38,3.20
2013,10,27,02,39,3.20
2013,10,27,02,40,1.60
2013,10,27,02,41,1.60
2013,10,27,02,42,1.60
2013,10,27,02,45,3.20
2013,10,27,02,46,3.20
2013,10,27,02,47,3.20
2013,10,27,02,48,3.20
2013,10,27,02,49,1.60
2013,10,27,02,50,3.20
2013,10,27,02,51,3.20
2013,10,27,02,52,3.20
2013,10,27,02,53,3.20
2013,10,27,02,54,3.20
2013,10,27,02,55,3.20
2013,10,27,02,56,4.80
2013,10,27,02,57,1.60
2013,10,27,02,58,3.20
2013,10,27,02,59,6.40
2013,10,27,03,00,6.40
2013,10,27,03,01,1.60
2013,10,27,03,03,1.60
2013,10,27,03,04,3.20
2013,10,27,03,06,1.60
2013,10,27,03,07,1.60
2013,10,27,03,08,1.60
2013,10,27,03,09,1.60
2013,10,27,03,12,1.60
2013,10,27,03,13,1.60
2013,10,27,03,14,1.60
2013,10,27,03,15,1.60
2013,10,27,03,16,1.60
2013,10,27,03,17,6.40
2013,10,27,03,18,4.80
2013,10,27,03,20,6.40
2013,10,27,03,21,4.80
2013,10,27,03,22,3.20
2013,10,27,03,23,6.40
2013,10,27,03,24,4.80
2013,10,27,03,25,8.10
2013,10,27,03,26,8.10
2013,10,27,03,27,8.10
2013,10,27,03,28,4.80
2013,10,27,03,29,4.80
2013,10,27,03,30,4.80
2013,10,27,03,31,6.40
2013,10,27,03,32,8.10
2013,10,27,03,33,8.10
2013,10,27,03,34,4.80
2013,10,27,03,35,1.60
2013,10,27,03,36,4.80
2013,10,27,03,37,8.10
2013,10,27,03,38,8.10
2013,10,27,03,39,4.80
2013,10,27,03,40,4.80
2013,10,27,03,41,4.80
2013,10,27,03,42,4.80
2013,10,27,03,43,4.80
2013,10,27,03,44,4.80
2013,10,27,03,45,6.40
2013,10,27,03,46,4.80
2013,10,27,03,47,4.80
2013,10,27,03,48,4.80
2013,10,27,03,49,4.80
2013,10,27,03,50,4.80
2013,10,27,03,51,4.80
2013,10,27,03,52,3.20
2013,10,27,03,53,3.20
2013,10,27,03,54,3.20
2013,10,27,03,55,3.20
2013,10,27,03,56,6.40
2013,10,27,03,57,6.40
2013,10,27,03,58,6.40
2013,10,27,03,59,4.80
2013,10,27,04,00,1.60
2013,10,27,04,01,3.20
2013,10,27,04,02,4.80
2013,10,27,04,04,1.60
2013,10,27,04,05,3.20
2013,10,27,04,06,3.20
2013,10,27,04,07,4.80
2013,10,27,04,08,1.60
2013,10,27,04,09,3.20
2013,10,27,04,10,1.60
2013,10,27,04,11,1.60
2013,10,27,04,12,3.20
2013,10,27,04,13,3.20
2013,10,27,04,14,4.80
2013,10,27,04,15,4.80
2013,10,27,04,16,3.20
2013,10,27,04,17,1.60
2013,10,27,04,19,1.60
2013,10,27,04,20,3.20
2013,10,27,04,21,3.20
2013,10,27,04,22,3.20
2013,10,27,04,23,3.20
2013,10,27,04,24,1.60
2013,10,27,04,26,3.20
2013,10,27,04,27,1.60
2013,10,27,04,28,3.20
2013,10,27,04,29,4.80
2013,10,27,04,30,6.40
2013,10,27,04,31,8.10
2013,10,27,04,32,8.10
2013,10,27,04,33,6.40
2013,10,27,04,34,4.80
2013,10,27,04,35,4.80
2013,10,27,04,36,6.40
2013,10,27,04,37,8.10
2013,10,27,04,38,6.40
2013,10,27,04,39,6.40
2013,10,27,04,40,3.20
2013,10,27,04,41,3.20
2013,10,27,04,42,3.20
2013,10,27,04,43,3.20
2013,10,27,04,44,3.20
2013,10,27,04,46,1.60
2013,10,27,04,49,1.60
2013,10,27,04,50,4.80
2013,10,27,04,51,3.20
2013,10,27,04,52,3.20
2013,10,27,04,53,16.10
2013,10,27,04,54,14.50
2013,10,27,04,55,6.40
2013,10,27,04,56,4.80
2013,10,27,04,57,11.30
2013,10,27,04,58,8.10
2013,10,27,04,59,9.60
2013,10,27,05,00,9.60
2013,10,27,05,01,8.10
2013,10,27,05,02,4.80
2013,10,27,05,03,4.80
2013,10,27,05,04,11.30
2013,10,27,05,05,16.10
2013,10,27,05,06,16.10
2013,10,27,05,07,16.10
2013,10,27,05,08,20.90
2013,10,27,05,09,17.70
2013,10,27,05,10,16.10
2013,10,27,05,11,17.70
2013,10,27,05,12,11.30
2013,10,27,05,13,17.70
2013,10,27,05,14,14.50
2013,10,27,05,15,16.10
2013,10,27,05,16,25.70
2013,10,27,05,17,20.90
2013,10,27,05,18,32.20
2013,10,27,05,19,35.40
2013,10,27,05,20,24.20
2013,10,27,05,21,22.50
2013,10,27,05,22,32.20
2013,10,27,05,23,19.30
2013,10,27,05,24,24.20
2013,10,27,05,25,48.30
2013,10,27,05,26,45.10
2013,10,27,05,27,33.80
2013,10,27,05,28,20.90
2013,10,27,05,29,30.60
2013,10,27,05,30,22.50
2013,10,27,05,31,20.90
2013,10,27,05,32,30.60
2013,10,27,05,33,17.70
2013,10,27,05,34,35.40
2013,10,27,05,35,40.20
2013,10,27,05,36,37.00
2013,10,27,05,37,24.20
2013,10,27,05,38,17.70
2013,10,27,05,39,35.40
2013,10,27,05,40,25.70
2013,10,27,05,41,45.10
2013,10,27,05,42,37.00
2013,10,27,05,43,40.20
2013,10,27,05,44,27.40
2013,10,27,05,45,35.40
2013,10,27,05,46,24.20
2013,10,27,05,47,35.40
2013,10,27,05,48,25.70
2013,10,27,05,49,27.40
2013,10,27,05,50,37.00
2013,10,27,05,51,29.00
2013,10,27,05,52,25.70
2013,10,27,05,53,25.70
2013,10,27,05,54,40.20
2013,10,27,05,55,32.20
2013,10,27,05,56,27.40
2013,10,27,05,57,25.70
2013,10,27,05,58,38.60
2013,10,27,05,59,37.00
2013,10,27,06,00,22.50
2013,10,27,06,01,24.20
2013,10,27,06,02,35.40
2013,10,27,06,03,29.00
2013,10,27,06,04,40.20
2013,10,27,06,05,35.40
2013,10,27,06,06,53.10
2013,10,27,06,07,30.60
2013,10,27,06,08,29.00
2013,10,27,06,09,40.20
2013,10,27,06,10,37.00
2013,10,27,06,11,24.20
2013,10,27,06,12,37.00
2013,10,27,06,13,24.20
2013,10,27,06,14,30.60
2013,10,27,06,15,33.80
2013,10,27,06,16,30.60
2013,10,27,06,17,40.20
2013,10,27,06,18,29.00
2013,10,27,06,19,30.60
2013,10,27,06,20,24.20
2013,10,27,06,21,33.80
2013,10,27,06,22,41.80
2013,10,27,06,23,24.20
2013,10,27,06,24,27.40
2013,10,27,06,25,32.20
2013,10,27,06,26,38.60
2013,10,27,06,27,43.50
2013,10,27,06,28,40.20
2013,10,27,06,29,53.10
2013,10,27,06,30,35.40
2013,10,27,06,31,37.00
2013,10,27,06,32,20.90
2013,10,27,06,33,24.20
2013,10,27,06,34,20.90
2013,10,27,06,35,35.40
2013,10,27,06,36,29.00
2013,10,27,06,37,30.60
2013,10,27,06,38,25.70
2013,10,27,06,39,32.20
2013,10,27,06,40,37.00
2013,10,27,06,41,29.00
2013,10,27,06,42,25.70
2013,10,27,06,43,24.20
2013,10,27,06,44,22.50
2013,10,27,06,45,35.40
2013,10,27,06,46,37.00
2013,10,27,06,47,25.70
2013,10,27,06,48,27.40
2013,10,27,06,49,27.40
2013,10,27,06,50,24.20
2013,10,27,06,51,32.20
2013,10,27,06,52,24.20
2013,10,27,06,53,32.20
2013,10,27,06,54,32.20
2013,10,27,06,55,33.80
2013,10,27,06,56,33.80
2013,10,27,06,57,20.90
2013,10,27,06,58,19.30
2013,10,27,06,59,25.70
2013,10,27,07,00,20.90
2013,10,27,07,01,20.90
2013,10,27,07,02,16.10
2013,10,27,07,03,19.30
2013,10,27,07,04,37.00
2013,10,27,07,05,27.40
2013,10,27,07,06,25.70
2013,10,27,07,07,33.80
2013,10,27,07,08,27.40
2013,10,27,07,09,22.50
2013,10,27,07,10,37.00
2013,10,27,07,11,27.40
2013,10,27,07,12,32.20
2013,10,27,07,13,37.00
2013,10,27,07,14,14.50
2013,10,27,07,15,32.20
2013,10,27,07,16,22.50
2013,10,27,07,17,14.50
2013,10,27,07,18,27.40
2013,10,27,07,19,20.90
2013,10,27,07,20,32.20
2013,10,27,07,21,30.60
2013,10,27,07,22,35.40
2013,10,27,07,23,41.80
2013,10,27,07,24,17.70
2013,10,27,07,25,17.70
2013,10,27,07,26,16.10
2013,10,27,07,27,16.10
2013,10,27,07,28,22.50
2013,10,27,07,29,27.40
2013,10,27,07,30,19.30
2013,10,27,07,31,22.50
2013,10,27,07,32,17.70
2013,10,27,07,33,29.00
2013,10,27,07,34,9.60
2013,10,27,07,35,14.50
2013,10,27,07,36,24.20
2013,10,27,07,37,17.70
2013,10,27,07,38,19.30
2013,10,27,07,39,14.50
2013,10,27,07,40,19.30
2013,10,27,07,41,29.00
2013,10,27,07,42,20.90
2013,10,27,07,43,24.20
2013,10,27,07,44,38.60
2013,10,27,07,45,25.70
2013,10,27,07,46,22.50
2013,10,27,07,47,32.20
2013,10,27,07,48,38.60
2013,10,27,07,49,25.70
2013,10,27,07,50,27.40
2013,10,27,07,51,29.00
2013,10,27,07,52,25.70
2013,10,27,07,53,22.50
2013,10,27,07,54,19.30
2013,10,27,07,55,17.70
2013,10,27,07,56,11.30
2013,10,27,07,57,24.20
2013,10,27,07,58,22.50
2013,10,27,07,59,16.10
2013,10,27,08,00,27.40
2013,10,27,08,01,19.30
2013,10,27,08,02,27.40
2013,10,27,08,03,29.00
2013,10,27,08,04,24.20
2013,10,27,08,05,25.70
2013,10,27,08,06,25.70
2013,10,27,08,07,24.20
2013,10,27,08,08,17.70
2013,10,27,08,09,20.90
2013,10,27,08,10,12.90
2013,10,27,08,11,16.10
2013,10,27,08,12,22.50
2013,10,27,08,13,20.90
2013,10,27,08,14,27.40
2013,10,27,08,15,27.40
2013,10,27,08,16,33.80
2013,10,27,08,17,20.90
2013,10,27,08,18,22.50
2013,10,27,08,19,30.60
2013,10,27,08,20,24.20
2013,10,27,08,21,27.40
2013,10,27,08,22,24.20
2013,10,27,08,23,41.80
2013,10,27,08,24,29.00
2013,10,27,08,25,22.50
2013,10,27,08,26,22.50
2013,10,27,08,27,20.90
2013,10,27,08,28,35.40
2013,10,27,08,29,29.00
2013,10,27,08,30,25.70
2013,10,27,08,31,27.40
2013,10,27,08,32,35.40
2013,10,27,08,33,30.60
2013,10,27,08,34,17.70
2013,10,27,08,35,33.80
2013,10,27,08,36,29.00
2013,10,27,08,37,32.20
2013,10,27,08,38,24.20
2013,10,27,08,39,29.00
2013,10,27,08,40,25.70
2013,10,27,08,41,32.20
2013,10,27,08,42,33.80
2013,10,27,08,43,24.20
2013,10,27,08,44,25.70
2013,10,27,08,45,30.60
2013,10,27,08,46,27.40
2013,10,27,08,47,30.60
2013,10,27,08,48,25.70
2013,10,27,08,49,22.50
2013,10,27,08,50,29.00
2013,10,27,08,51,32.20
2013,10,27,08,52,33.80
2013,10,27,08,53,22.50
2013,10,27,08,54,25.70
2013,10,27,08,55,24.20
2013,10,27,08,56,33.80
2013,10,27,08,57,24.20
2013,10,27,08,58,37.00
2013,10,27,08,59,35.40
2013,10,27,09,00,30.60
2013,10,27,09,01,29.00
2013,10,27,09,02,40.20
2013,10,27,09,03,37.00
2013,10,27,09,04,24.20
2013,10,27,09,05,30.60
2013,10,27,09,06,30.60
2013,10,27,09,07,25.70
2013,10,27,09,08,20.90
2013,10,27,09,09,29.00
2013,10,27,09,10,32.20
2013,10,27,09,11,20.90
2013,10,27,09,12,25.70
2013,10,27,09,13,25.70
2013,10,27,09,14,29.00
2013,10,27,09,15,24.20
2013,10,27,09,16,24.20
2013,10,27,09,17,27.40
2013,10,27,09,18,24.20
2013,10,27,09,19,25.70
2013,10,27,09,20,25.70
2013,10,27,09,21,24.20
2013,10,27,09,22,32.20
2013,10,27,09,23,41.80
2013,10,27,09,24,33.80
2013,10,27,09,25,29.00
2013,10,27,09,26,27.40
2013,10,27,09,27,33.80
2013,10,27,09,28,17.70
2013,10,27,09,29,45.10
2013,10,27,09,30,27.40
2013,10,27,09,31,30.60
2013,10,27,09,32,29.00
2013,10,27,09,33,22.50
2013,10,27,09,34,24.20
2013,10,27,09,35,33.80
2013,10,27,09,36,37.00
2013,10,27,09,37,33.80
2013,10,27,09,38,30.60
2013,10,27,09,39,29.00
2013,10,27,09,40,27.40
2013,10,27,09,41,29.00
2013,10,27,09,42,32.20
2013,10,27,09,43,27.40
2013,10,27,09,44,33.80
2013,10,27,09,45,29.00
2013,10,27,09,46,25.70
2013,10,27,09,47,35.40
2013,10,27,09,48,32.20
2013,10,27,09,49,30.60
2013,10,27,09,50,32.20
2013,10,27,09,51,24.20
2013,10,27,09,52,30.60
2013,10,27,09,53,30.60
2013,10,27,09,54,30.60
2013,10,27,09,55,30.60
2013,10,27,09,56,37.00
2013,10,27,09,57,30.60
2013,10,27,09,58,25.70
2013,10,27,09,59,25.70
2013,10,27,10,00,38.60
2013,10,27,10,01,24.20
2013,10,27,10,02,29.00
2013,10,27,10,03,30.60
2013,10,27,10,04,30.60
2013,10,27,10,05,35.40
2013,10,27,10,06,38.60
2013,10,27,10,07,27.40
2013,10,27,10,08,32.20
2013,10,27,10,09,24.20
2013,10,27,10,10,27.40
2013,10,27,10,11,37.00
2013,10,27,10,12,30.60
2013,10,27,10,13,43.50
2013,10,27,10,14,32.20
2013,10,27,10,15,29.00
2013,10,27,10,16,24.20
2013,10,27,10,17,30.60
2013,10,27,10,18,30.60
2013,10,27,10,19,29.00
2013,10,27,10,20,29.00
2013,10,27,10,21,32.20
2013,10,27,10,22,40.20
2013,10,27,10,23,32.20
2013,10,27,10,24,35.40
2013,10,27,10,25,29.00
2013,10,27,10,26,30.60
2013,10,27,10,27,40.20
2013,10,27,10,28,38.60
2013,10,27,10,29,29.00
2013,10,27,10,30,32.20
2013,10,27,10,31,33.80
2013,10,27,10,32,35.40
2013,10,27,10,33,25.70
2013,10,27,10,34,37.00
2013,10,27,10,35,29.00
2013,10,27,10,36,35.40
2013,10,27,10,37,27.40
2013,10,27,10,38,29.00
2013,10,27,10,39,22.50
2013,10,27,10,40,35.40
2013,10,27,10,41,29.00
2013,10,27,10,42,40.20
2013,10,27,10,43,29.00
2013,10,27,10,44,27.40
2013,10,27,10,45,25.70
2013,10,27,10,46,33.80
2013,10,27,10,47,27.40
2013,10,27,10,48,29.00
2013,10,27,10,49,29.00
2013,10,27,10,50,35.40
2013,10,27,10,51,22.50
2013,10,27,10,52,29.00
2013,10,27,10,53,48.30
2013,10,27,10,54,40.20
2013,10,27,10,55,27.40
2013,10,27,10,56,38.60
2013,10,27,10,57,27.40
2013,10,27,10,58,35.40
2013,10,27,10,59,24.20
2013,10,27,11,00,32.20
2013,10,27,11,01,32.20
2013,10,27,11,02,35.40
2013,10,27,11,03,41.80
2013,10,27,11,04,24.20
2013,10,27,11,05,32.20
2013,10,27,11,06,33.80
2013,10,27,11,07,29.00
2013,10,27,11,08,33.80
2013,10,27,11,09,33.80
2013,10,27,11,10,29.00
2013,10,27,11,11,24.20
2013,10,27,11,12,33.80
2013,10,27,11,13,24.20
2013,10,27,11,14,29.00
2013,10,27,11,15,33.80
2013,10,27,11,16,33.80
2013,10,27,11,17,29.00
2013,10,27,11,18,20.90
2013,10,27,11,19,22.50
2013,10,27,11,20,29.00
2013,10,27,11,21,17.70
2013,10,27,11,22,24.20
2013,10,27,11,23,35.40
2013,10,27,11,24,17.70
2013,10,27,11,25,29.00
2013,10,27,11,26,27.40
2013,10,27,11,27,32.20
2013,10,27,11,28,29.00
2013,10,27,11,29,24.20
2013,10,27,11,30,25.70
2013,10,27,11,31,24.20
2013,10,27,11,32,33.80
2013,10,27,11,33,40.20
2013,10,27,11,34,51.50
2013,10,27,11,35,40.20
2013,10,27,11,36,29.00
2013,10,27,11,37,29.00
2013,10,27,11,38,35.40
2013,10,27,11,39,35.40
2013,10,27,11,40,41.80
2013,10,27,11,41,41.80
2013,10,27,11,42,30.60
2013,10,27,11,43,35.40
2013,10,27,11,44,24.20
2013,10,27,11,45,27.40
2013,10,27,11,46,27.40
2013,10,27,11,47,24.20
2013,10,27,11,48,27.40
2013,10,27,11,49,29.00
2013,10,27,11,50,43.50
2013,10,27,11,51,27.40
2013,10,27,11,52,20.90
2013,10,27,11,53,29.00
2013,10,27,11,54,25.70
2013,10,27,11,55,25.70
2013,10,27,11,56,40.20
2013,10,27,11,57,32.20
2013,10,27,11,58,25.70
2013,10,27,11,59,35.40
2013,10,27,12,00,22.50
2013,10,27,12,01,37.00
2013,10,27,12,02,40.20
2013,10,27,12,03,41.80
2013,10,27,12,04,38.60
2013,10,27,12,05,29.00
2013,10,27,12,06,20.90
2013,10,27,12,07,30.60
2013,10,27,12,08,29.00
2013,10,27,12,09,25.70
2013,10,27,12,10,20.90
2013,10,27,12,11,40.20
2013,10,27,12,12,32.20
2013,10,27,12,13,32.20
2013,10,27,12,14,29.00
2013,10,27,12,15,32.20
2013,10,27,12,16,32.20
2013,10,27,12,17,30.60
2013,10,27,12,18,25.70
2013,10,27,12,19,29.00
2013,10,27,12,20,29.00
2013,10,27,12,21,30.60
2013,10,27,12,22,20.90
2013,10,27,12,23,22.50
2013,10,27,12,24,38.60
2013,10,27,12,25,20.90
2013,10,27,12,26,27.40
2013,10,27,12,27,22.50
2013,10,27,12,28,30.60
2013,10,27,12,29,41.80
2013,10,27,12,30,37.00
2013,10,27,12,31,41.80
2013,10,27,12,32,30.60
2013,10,27,12,33,30.60
2013,10,27,12,34,38.60
2013,10,27,12,35,24.20
2013,10,27,12,36,24.20
2013,10,27,12,37,41.80
2013,10,27,12,38,43.50
2013,10,27,12,39,30.60
2013,10,27,12,40,37.00
2013,10,27,12,41,43.50
2013,10,27,12,42,33.80
2013,10,27,12,43,29.00
2013,10,27,12,44,27.40
2013,10,27,12,45,25.70
2013,10,27,12,46,48.30
2013,10,27,12,47,43.50
2013,10,27,12,48,30.60
2013,10,27,12,49,41.80
2013,10,27,12,50,25.70
2013,10,27,12,51,20.90
2013,10,27,12,52,43.50
2013,10,27,12,53,38.60
2013,10,27,12,54,40.20
2013,10,27,12,55,38.60
2013,10,27,12,56,30.60
2013,10,27,12,57,20.90
2013,10,27,12,58,46.70
2013,10,27,12,59,38.60
2013,10,27,13,00,40.20
2013,10,27,13,01,35.40
2013,10,27,13,02,24.20
2013,10,27,13,03,19.30
2013,10,27,13,04,32.20
2013,10,27,13,05,37.00
2013,10,27,13,06,32.20
2013,10,27,13,07,38.60
2013,10,27,13,08,30.60
2013,10,27,13,09,35.40
2013,10,27,13,10,32.20
2013,10,27,13,11,35.40
2013,10,27,13,12,24.20
2013,10,27,13,13,35.40
2013,10,27,13,14,33.80
2013,10,27,13,15,37.00
2013,10,27,13,16,25.70
2013,10,27,13,17,27.40
2013,10,27,13,18,27.40
2013,10,27,13,19,35.40
2013,10,27,13,20,27.40
2013,10,27,13,21,53.10
2013,10,27,13,22,41.80
2013,10,27,13,23,35.40
2013,10,27,13,24,20.90
2013,10,27,13,25,30.60
2013,10,27,13,26,46.70
2013,10,27,13,27,35.40
2013,10,27,13,28,37.00
2013,10,27,13,29,30.60
2013,10,27,13,30,24.20
2013,10,27,13,31,46.70
2013,10,27,13,32,41.80
2013,10,27,13,33,46.70
2013,10,27,13,34,35.40
2013,10,27,13,35,38.60
2013,10,27,13,36,33.80
2013,10,27,13,37,25.70
2013,10,27,13,38,17.70
2013,10,27,13,39,27.40
2013,10,27,13,40,25.70
2013,10,27,13,41,22.50
2013,10,27,13,42,46.70
2013,10,27,13,43,35.40
2013,10,27,13,44,29.00
2013,10,27,13,45,37.00
2013,10,27,13,46,41.80
2013,10,27,13,47,38.60
2013,10,27,13,48,38.60
2013,10,27,13,49,32.20
2013,10,27,13,50,57.90
2013,10,27,13,51,46.70
2013,10,27,13,52,38.60
2013,10,27,13,53,29.00
2013,10,27,13,54,33.80
2013,10,27,13,55,37.00
2013,10,27,13,56,27.40
2013,10,27,13,57,30.60
2013,10,27,13,58,27.40
2013,10,27,13,59,33.80
2013,10,27,14,00,25.70
2013,10,27,14,01,48.30
2013,10,27,14,02,41.80
2013,10,27,14,03,53.10
2013,10,27,14,04,48.30
2013,10,27,14,05,40.20
2013,10,27,14,06,51.50
2013,10,27,14,07,40.20
2013,10,27,14,08,24.20
2013,10,27,14,09,41.80
2013,10,27,14,10,38.60
2013,10,27,14,11,33.80
2013,10,27,14,12,32.20
2013,10,27,14,13,41.80
2013,10,27,14,14,33.80
2013,10,27,14,15,29.00
2013,10,27,14,16,30.60
2013,10,27,14,17,43.50
2013,10,27,14,18,32.20
2013,10,27,14,19,27.40
2013,10,27,14,20,41.80
2013,10,27,14,21,33.80
2013,10,27,14,22,35.40
2013,10,27,14,23,29.00
2013,10,27,14,24,41.80
2013,10,27,14,25,25.70
2013,10,27,14,26,22.50
2013,10,27,14,27,33.80
2013,10,27,14,28,37.00
2013,10,27,14,29,27.40
2013,10,27,14,30,27.40
2013,10,27,14,31,32.20
2013,10,27,14,32,30.60
2013,10,27,14,33,20.90
2013,10,27,14,34,32.20
2013,10,27,14,35,27.40
2013,10,27,14,36,20.90
2013,10,27,14,37,19.30
2013,10,27,14,38,37.00
2013,10,27,14,39,30.60
2013,10,27,14,40,27.40
2013,10,27,14,41,33.80
2013,10,27,14,42,25.70
2013,10,27,14,43,37.00
2013,10,27,14,44,33.80
2013,10,27,14,45,33.80
2013,10,27,14,46,41.80
2013,10,27,14,47,20.90
2013,10,27,14,48,29.00
2013,10,27,14,49,33.80
2013,10,27,14,50,43.50
2013,10,27,14,51,27.40
2013,10,27,14,52,32.20
2013,10,27,14,53,32.20
2013,10,27,14,54,25.70
2013,10,27,14,55,27.40
2013,10,27,14,56,27.40
2013,10,27,14,57,37.00
2013,10,27,14,58,40.20
2013,10,27,14,59,35.40
2013,10,27,15,00,29.00
2013,10,27,15,01,24.20
2013,10,27,15,02,30.60
2013,10,27,15,03,29.00
2013,10,27,15,04,25.70
2013,10,27,15,05,29.00
2013,10,27,15,06,32.20
2013,10,27,15,07,30.60
2013,10,27,15,08,30.60
2013,10,27,15,09,25.70
2013,10,27,15,10,32.20
2013,10,27,15,11,29.00
2013,10,27,15,12,38.60
2013,10,27,15,13,35.40
2013,10,27,15,14,40.20
2013,10,27,15,15,38.60
2013,10,27,15,16,35.40
2013,10,27,15,17,33.80
2013,10,27,15,18,29.00
2013,10,27,15,19,30.60
2013,10,27,15,20,35.40
2013,10,27,15,21,25.70
2013,10,27,15,22,25.70
2013,10,27,15,23,35.40
2013,10,27,15,24,48.30
2013,10,27,15,25,29.00
2013,10,27,15,26,35.40
2013,10,27,15,27,32.20
2013,10,27,15,28,22.50
2013,10,27,15,29,24.20
2013,10,27,15,30,27.40
2013,10,27,15,31,24.20
2013,10,27,15,32,29.00
2013,10,27,15,33,27.40
2013,10,27,15,34,41.80
2013,10,27,15,35,33.80
2013,10,27,15,36,41.80
2013,10,27,15,37,20.90
2013,10,27,15,38,20.90
2013,10,27,15,39,25.70
2013,10,27,15,40,27.40
2013,10,27,15,41,25.70
2013,10,27,15,42,33.80
2013,10,27,15,43,30.60
2013,10,27,15,44,33.80
2013,10,27,15,45,25.70
2013,10,27,15,46,25.70
2013,10,27,15,47,14.50
2013,10,27,15,48,40.20
2013,10,27,15,49,35.40
2013,10,27,15,50,38.60
2013,10,27,15,51,32.20
2013,10,27,15,52,24.20
2013,10,27,15,53,33.80
2013,10,27,15,54,33.80
2013,10,27,15,55,30.60
2013,10,27,15,56,32.20
2013,10,27,15,57,32.20
2013,10,27,15,58,27.40
2013,10,27,15,59,38.60
2013,10,27,16,00,33.80
2013,10,27,16,01,29.00
2013,10,27,16,02,20.90
2013,10,27,16,03,32.20
2013,10,27,16,04,33.80
2013,10,27,16,05,33.80
2013,10,27,16,06,25.70
2013,10,27,16,07,20.90
2013,10,27,16,08,30.60
2013,10,27,16,09,32.20
2013,10,27,16,10,22.50
2013,10,27,16,11,25.70
2013,10,27,16,12,29.00
2013,10,27,16,13,27.40
2013,10,27,16,14,24.20
2013,10,27,16,15,32.20
2013,10,27,16,16,22.50
2013,10,27,16,17,27.40
2013,10,27,16,18,33.80
2013,10,27,16,19,22.50
2013,10,27,16,20,11.30
2013,10,27,16,21,24.20
2013,10,27,16,22,29.00
2013,10,27,16,23,25.70
2013,10,27,16,24,17.70
2013,10,27,16,25,29.00
2013,10,27,16,26,37.00
2013,10,27,16,27,24.20
2013,10,27,16,28,33.80
2013,10,27,16,29,30.60
2013,10,27,16,30,32.20
2013,10,27,16,31,27.40
2013,10,27,16,32,22.50
2013,10,27,16,33,27.40
2013,10,27,16,34,25.70
2013,10,27,16,35,35.40
2013,10,27,16,36,20.90
2013,10,27,16,37,24.20
2013,10,27,16,38,20.90
2013,10,27,16,39,16.10
2013,10,27,16,40,22.50
2013,10,27,16,41,22.50
2013,10,27,16,42,24.20
2013,10,27,16,43,16.10
2013,10,27,16,44,25.70
2013,10,27,16,45,24.20
2013,10,27,16,46,32.20
2013,10,27,16,47,29.00
2013,10,27,16,48,27.40
2013,10,27,16,49,17.70
2013,10,27,16,50,33.80
2013,10,27,16,51,22.50
2013,10,27,16,52,25.70
2013,10,27,16,53,20.90
2013,10,27,16,54,22.50
2013,10,27,16,55,20.90
2013,10,27,16,56,22.50
2013,10,27,16,57,20.90
2013,10,27,16,58,27.40
2013,10,27,16,59,24.20
2013,10,27,17,00,20.90
2013,10,27,17,01,25.70
2013,10,27,17,02,24.20
2013,10,27,17,03,25.70
2013,10,27,17,04,33.80
2013,10,27,17,05,30.60
2013,10,27,17,06,29.00
2013,10,27,17,07,25.70
2013,10,27,17,08,29.00
2013,10,27,17,09,27.40
2013,10,27,17,10,29.00
2013,10,27,17,11,22.50
2013,10,27,17,12,32.20
2013,10,27,17,13,24.20
2013,10,27,17,14,30.60
2013,10,27,17,15,17.70
2013,10,27,17,16,30.60
2013,10,27,17,17,22.50
2013,10,27,17,18,29.00
2013,10,27,17,19,29.00
2013,10,27,17,20,27.40
2013,10,27,17,21,20.90
2013,10,27,17,22,30.60
2013,10,27,17,23,24.20
2013,10,27,17,24,24.20
2013,10,27,17,25,22.50
2013,10,27,17,26,29.00
2013,10,27,17,27,22.50
2013,10,27,17,28,29.00
2013,10,27,17,29,19.30
2013,10,27,17,30,19.30
2013,10,27,17,31,32.20
2013,10,27,17,32,30.60
2013,10,27,17,33,20.90
2013,10,27,17,34,24.20
2013,10,27,17,35,19.30
2013,10,27,17,36,27.40
2013,10,27,17,37,20.90
2013,10,27,17,38,24.20
2013,10,27,17,39,29.00
2013,10,27,17,40,24.20
2013,10,27,17,41,19.30
2013,10,27,17,42,24.20
2013,10,27,17,43,25.70
2013,10,27,17,44,24.20
2013,10,27,17,45,25.70
2013,10,27,17,46,27.40
2013,10,27,17,47,20.90
2013,10,27,17,48,11.30
2013,10,27,17,49,22.50
2013,10,27,17,50,19.30
2013,10,27,17,51,22.50
2013,10,27,17,52,20.90
2013,10,27,17,53,17.70
2013,10,27,17,54,22.50
2013,10,27,17,55,17.70
2013,10,27,17,56,20.90
2013,10,27,17,57,32.20
2013,10,27,17,58,27.40
2013,10,27,17,59,14.50
2013,10,27,18,00,20.90
2013,10,27,18,01,24.20
2013,10,27,18,02,25.70
2013,10,27,18,03,20.90
2013,10,27,18,04,22.50
2013,10,27,18,05,17.70
2013,10,27,18,06,22.50
2013,10,27,18,07,16.10
2013,10,27,18,08,19.30
2013,10,27,18,09,17.70